Molniya
NORAD ID: 22949
Int'l Code: 1993-079A
Perigee: 835.1 km
Apogee: 39,564.1 km
Inclination: 61.6 °
Period: 718.4 minutes
Semi major axis: 26570 km
Launch date: December 22, 1993
Source: Commonwealth of Independent States (former USSR) (CIS)
Two Line Element Set (TLE):
1 22949U 93079A 13170.28322081 .00002786 00000-0 16835+0 0 1067
2 22949 061.6282 196.4485 7287951 262.7802 017.2294 02.00448021142874
Source:
NASA's NSSDC Master Catalog entry for MOLNIYA 1-87